EW9136 Weather Reports


Display with metric or nautical units.
time (UTC)temp
F
wind
direction
speed
MPH
gust
MPH
rain 1hr
in
rain 24hr
in
rain mn
in
humidity
%
barometer
mb
20191022013100 37 231 0.0 0.0 0.00 0.00 0.00 97 1021.0
20191022011535 37 231 1.0 3.0 0.00 0.00 0.00 98 1021.0
20191022010050 37 231 2.0 4.0 0.00 0.00 0.00 98 1020.9
20191022004544 36 202 1.0 4.0 0.00 0.00 0.00 96 1021.0
20191022003044 36 206 1.0 3.0 0.00 0.00 0.00 96 1021.1
20191022001541 37 206 0.0 0.0 0.00 0.00 0.00 95 1021.2
20191022000030 38 206 0.0 0.0 0.00 0.00 0.00 96 1021.2
20191021234518 38 206 1.0 4.0 0.00 0.00 0.00 97 1021.3
20191021233030 38 206 1.0 4.0 0.00 0.00 0.00 96 1021.4
20191021231541 37 191 1.0 3.0 0.00 0.00 0.00 95 1021.6
20191021230020 38 201 1.0 4.0 0.00 0.00 0.00 96 1021.5
20191021224538 38 195 0.0 2.0 0.00 0.00 0.00 95 1021.6
20191021223030 38 195 0.0 2.0 0.00 0.00 0.00 94 1021.6
20191021221509 39 155 0.0 1.0 0.00 0.00 0.00 94 1021.6
20191021220039 39 155 1.0 4.0 0.00 0.00 0.00 94 1021.6
20191021214517 39 156 3.0 5.0 0.00 0.00 0.00 93 1021.6
20191021213018 40 154 3.0 5.0 0.00 0.00 0.00 92 1021.8
20191021211716 41 179 1.0 3.0 0.00 0.00 0.00 92 1021.9
20191021210238 42 180 0.0 2.0 0.00 0.01 0.00 93 1021.9
20191021204737 43 180 1.0 4.0 0.00 0.01 0.00 93 1021.9
20191021203159 44 180 1.0 3.0 0.00 0.01 0.00 93 1021.9
20191021201641 44 211 0.0 2.0 0.00 0.01 0.00 93 1022.0
20191021200114 45 211 1.0 2.0 0.00 0.01 0.00 94 1022.0
20191021194653 45 218 1.0 2.0 0.00 0.01 0.00 95 1022.1
20191021193120 45 220 1.0 3.0 0.00 0.01 0.00 95 1022.0
20191021191607 44 222 0.0 0.0 0.00 0.01 0.00 96 1022.0
20191021190234 44 222 1.0 2.0 0.00 0.01 0.00 95 1022.0
20191021184749 43 241 0.0 0.0 0.00 0.01 0.00 94 1022.0
20191021183152 43 241 0.0 0.0 0.00 0.01 0.00 93 1021.9
20191021181639 43 241 0.0 3.0 0.00 0.01 0.00 91 1022.0
20191021180149 44 277 0.0 2.0 0.00 0.01 0.00 89 1022.0
20191021174632 46 282 0.0 2.0 0.00 0.01 0.00 88 1021.7
20191021173113 47 284 1.0 3.0 0.00 0.01 0.00 87 1021.5
20191021171559 48 290 2.0 4.0 0.00 0.01 0.00 86 1021.5
20191021170045 48 310 1.0 4.0 0.00 0.01 0.00 86 1021.5
20191021164539 49 32 0.0 1.0 0.00 0.01 0.00 87 1021.4
20191021163057 49 32 0.0 4.0 0.00 0.01 0.00 86 1021.4
20191021161558 49 346 3.0 8.0 0.00 0.01 0.00 85 1021.5
20191021160107 49 30 4.0 11.0 0.00 0.01 0.00 86 1021.5
20191021154523 50 352 3.0 9.0 0.00 0.01 0.00 86 1021.4
20191021153110 50 63 5.0 10.0 0.00 0.01 0.00 86 1021.2
20191021151538 50 15 3.0 10.0 0.00 0.01 0.00 87 1021.2
20191021150035 50 33 4.0 10.0 0.00 0.02 0.00 87 1021.3
20191021144552 50 3 4.0 11.0 0.00 0.02 0.00 88 1021.3
20191021143059 50 25 4.0 13.0 0.00 0.02 0.00 89 1021.3
20191021141536 50 15 8.0 13.0 0.00 0.02 0.00 88 1021.5
20191021140047 50 297 8.0 15.0 0.00 0.02 0.00 89 1021.5
20191021134529 50 345 8.0 15.0 0.00 0.02 0.00 90 1021.6
20191021133031 50 38 5.0 17.0 0.00 0.02 0.00 90 1021.6
20191021131542 50 1 10.0 17.0 0.00 0.02 0.00 91 1021.7
20191021130037 50 355 7.0 17.0 0.00 0.02 0.00 90 1021.9
20191021124534 52 10 8.0 16.0 0.00 0.02 0.00 88 1021.8
20191021123020 52 42 6.0 12.0 0.00 0.02 0.00 88 1021.7
20191021121525 52 15 9.0 14.0 0.00 0.02 0.00 87 1021.8
20191021120032 52 25 8.0 14.0 0.00 0.02 0.00 87 1021.7
20191021114513 52 6 7.0 13.0 0.00 0.02 0.00 88 1021.6
20191021113325 52 20 7.0 16.0 0.00 0.02 0.00 90 1021.6
20191021111629 51 20 6.0 14.0 0.00 0.02 0.00 89 1021.6
20191021110205 51 33 5.0 16.0 0.00 0.02 0.00 89 1021.6
20191021104711 52 53 9.0 15.0 0.00 0.02 0.00 89 1021.3
20191021103107 52 52 9.0 16.0 0.00 0.02 0.00 89 1021.2
20191021101702 51 50 10.0 16.0 0.00 0.02 0.00 90 1021.2
20191021100115 51 15 12.0 19.0 0.00 0.02 0.00 90 1021.1
20191021094605 51 31 11.0 19.0 0.00 0.02 0.00 90 1021.1
20191021093059 50 37 10.0 17.0 0.00 0.02 0.00 91 1021.0
20191021091624 50 25 10.0 18.0 0.00 0.02 0.00 92 1020.9
20191021090117 50 40 8.0 15.0 0.00 0.02 0.00 95 1020.9
20191021084606 49 36 8.0 13.0 0.00 0.02 0.00 94 1020.8
20191021083118 49 35 11.0 19.0 0.00 0.02 0.00 93 1020.8
20191021081613 49 25 9.0 20.0 0.00 0.02 0.00 92 1020.6
20191021080110 49 37 10.0 16.0 0.00 0.02 0.00 93 1020.5
20191021074543 49 39 10.0 17.0 0.00 0.02 0.00 93 1020.3
20191021073056 49 39 7.0 15.0 0.00 0.02 0.00 94 1020.1
20191021071535 49 30 10.0 19.0 0.00 0.02 0.00 94 1020.0
20191021070032 49 32 10.0 14.0 0.00 0.02 0.00 93 1019.9
20191021064555 49 62 8.0 17.0 0.00 0.02 0.00 94 1019.8
20191021063032 49 46 8.0 14.0 0.00 0.02 0.00 93 1019.9
20191021061538 49 25 8.0 17.0 0.00 0.02 0.00 93 1019.9
20191021060042 50 5 10.0 16.0 0.00 0.02 0.00 93 1019.9
20191021054536 50 25 10.0 16.0 0.00 0.02 0.00 93 1019.8
20191021053044 50 15 11.0 18.0 0.00 0.02 0.00 92 1019.8
20191021051522 50 20 9.0 18.0 0.00 0.02 0.00 93 1019.6
20191021050022 50 38 12.0 17.0 0.00 0.02 0.00 93 1019.4
20191021044513 50 42 8.0 16.0 0.00 0.02 0.00 93 1019.4
20191021043004 50 39 9.0 18.0 0.00 0.02 0.00 93 1019.2
20191021041518 50 7 7.0 18.0 0.00 0.02 0.00 93 1019.1
20191021040002 50 20 7.0 15.0 0.00 0.02 0.00 93 1019.1
20191021034736 50 350 10.0 16.0 0.00 0.02 0.00 92 1019.0
20191021033116 50 36 9.0 19.0 0.00 0.02 0.00 92 1018.9
20191021031648 50 15 8.0 17.0 0.00 0.02 0.00 93 1019.0
20191021030156 50 50 7.0 15.0 0.00 0.02 0.00 93 1018.8
20191021024719 50 35 10.0 24.0 0.00 0.02 0.00 92 1018.8
20191021023200 50 25 10.0 18.0 0.00 0.02 0.00 93 1018.8
20191021021659 50 15 10.0 17.0 0.00 0.02 0.00 94 1018.6
20191021020134 50 25 9.0 15.0 0.00 0.02 0.00 93 1018.7
20191021014619 50 49 10.0 16.0 0.00 0.02 0.00 93 1018.7